FW1025 Weather Reports


time (UTC)temp
F
wind
direction
speed
knots
gust
knots
rain 1hr
in
rain 24hr
in
rain mn
in
humidity
%
barometer
mb
20260906214940 81 139 7.0 15.6 0.00 0.00 0.00 33 1021.6
20260906213942 82 177 7.0 14.8 0.00 0.00 0.00 33 1021.8
20260906212957 82 177 6.1 14.8 0.00 0.00 0.00 33 1021.8
20260906211951 82 132 5.2 15.6 0.00 0.00 0.00 34 1021.8
20260906205821 81 154 8.7 20.9 0.00 0.00 0.00 34 1022.2
20260906204755 81 93 7.8 14.8 0.00 0.00 0.00 38 1022.2
20260906203805 81 156 7.0 14.8 0.00 0.00 0.00 36 1022.5
20260906202751 80 152 6.1 14.8 0.00 0.00 0.00 38 1022.6
20260906201721 80 121 5.2 12.2 0.00 0.00 0.00 38 1022.6
20260906200652 81 126 5.2 13.0 0.00 0.00 0.00 37 1022.6
20260906195658 81 216 6.1 13.0 0.00 0.00 0.00 34 1022.6
20260906194637 80 134 4.3 9.6 0.00 0.00 0.00 34 1022.6
20260906193612 80 158 7.0 13.0 0.00 0.00 0.00 36 1023.0
20260906191518 80 135 4.3 17.4 0.00 0.00 0.00 35 1023.2
20260906190506 80 146 6.1 17.4 0.00 0.00 0.00 36 1023.3
20260906185508 80 124 6.1 12.2 0.00 0.00 0.00 35 1023.7
20260906184440 80 103 6.1 13.0 0.00 0.00 0.00 35 1023.7
20260906182249 79 174 6.1 12.2 0.00 0.00 0.00 36 1024.3
20260906181249 79 142 4.3 12.2 0.00 0.00 0.00 36 1024.6
20260906180217 80 130 4.3 11.3 0.00 0.00 0.00 36 1024.6
20260906175242 79 211 5.2 11.3 0.00 0.00 0.00 36 1024.7
20260906174219 79 165 4.3 11.3 0.00 0.00 0.00 36 1024.7
20260906173224 80 184 6.1 11.3 0.00 0.00 0.00 34 1024.7
20260906172224 79 169 2.6 9.6 0.00 0.00 0.00 36 1024.8
20260906170124 79 180 1.7 11.3 0.00 0.00 0.00 35 1025.1
20260906165141 80 350 2.6 7.0 0.00 0.00 0.00 36 1025.3
20260906164141 79 55 1.7 8.7 0.00 0.00 0.00 36 1025.4
20260906155803 76 74 2.6 8.7 0.00 0.00 0.00 37 1025.4
20260906153644 75 71 1.7 7.0 0.00 0.00 0.00 40 1025.2
20260906151545 73 44 3.5 7.8 0.00 0.00 0.00 42 1025.3
20260906150543 72 5 2.6 6.1 0.00 0.00 0.00 45 1025.2
20260906145511 70 355 3.5 6.1 0.00 0.00 0.00 47 1025.3
20260906144439 69 24 4.3 6.1 0.00 0.00 0.00 47 1025.3
20260906143428 68 355 3.5 6.1 0.00 0.00 0.00 50 1025.1
20260906142401 67 5 3.5 6.1 0.00 0.00 0.00 50 1025.0
20260906141358 65 0 3.5 6.1 0.00 0.00 0.00 54 1025.0
20260906135237 62 19 2.6 4.3 0.00 0.00 0.00 60 1024.9
20260906133018 60 14 1.7 3.5 0.00 0.00 0.00 61 1024.9
20260906131949 59 5 1.7 3.5 0.00 0.00 0.00 62 1024.6
20260906130921 59 9 1.7 5.2 0.00 0.00 0.00 61 1024.5
20260906125917 59 12 2.6 5.2 0.00 0.00 0.00 60 1024.5
20260906124903 60 5 2.6 5.2 0.00 0.00 0.00 59 1024.7
20260906123916 60 33 2.6 6.1 0.00 0.00 0.00 59 1024.4
20260906122916 60 13 2.6 6.1 0.00 0.00 0.00 59 1024.4
20260906121849 60 5 2.6 5.2 0.00 0.00 0.00 58 1024.3
20260906120815 60 355 3.5 5.2 0.00 0.00 0.00 58 1024.3
20260906115809 60 0 3.5 6.1 0.00 0.00 0.00 58 1024.2
20260906113718 60 346 3.5 6.1 0.00 0.00 0.00 58 1024.2
20260906112712 60 0 2.6 5.2 0.00 0.00 0.00 58 1024.1
20260906110516 61 11 2.6 4.3 0.00 0.00 0.00 56 1023.9
20260906105456 62 350 1.7 4.3 0.00 0.00 0.00 54 1024.1
20260906104447 62 9 1.7 3.5 0.00 0.00 0.00 53 1024.1
20260906102322 63 13 0.9 2.6 0.00 0.00 0.00 53 1024.1
20260906100220 62 34 0.9 2.6 0.00 0.00 0.00 55 1024.2
20260906095229 63 28 1.7 3.5 0.00 0.00 0.00 54 1024.4
20260906094207 63 14 1.7 4.3 0.00 0.00 0.00 54 1024.1
20260906093215 62 36 0.9 4.3 0.00 0.00 0.00 56 1024.1
20260906091037 61 355 0.9 2.6 0.00 0.00 0.00 63 1023.9
20260906090043 61 338 0.9 2.6 0.00 0.00 0.00 63 1023.9
20260906085053 62 338 0.9 2.6 0.00 0.00 0.00 62 1023.9
20260906084113 62 344 0.9 2.6 0.00 0.00 0.00 62 1023.9
20260906083048 62 5 0.9 1.7 0.00 0.00 0.00 64 1023.9
20260906082045 63 5 0.0 1.7 0.00 0.00 0.00 63 1023.9
20260906081107 63 5 0.9 1.7 0.00 0.00 0.00 64 1023.9
20260906080058 63 5 0.0 3.5 0.00 0.00 0.00 64 1023.9
20260906073949 63 320 1.7 4.3 0.00 0.00 0.00 65 1024.0
20260906072951 63 315 0.9 2.6 0.00 0.00 0.00 69 1024.0
20260906072000 64 302 0.0 1.7 0.00 0.00 0.00 69 1024.1
20260906070952 64 336 0.0 0.9 0.00 0.00 0.00 70 1024.2
20260906070015 63 336 0.0 0.0 0.00 0.00 0.00 70 1024.2
20260906064941 63 336 0.0 0.0 0.00 0.00 0.00 70 1024.3
20260906063932 64 336 0.0 0.0 0.00 0.00 0.00 70 1024.3
20260906062946 64 336 0.9 2.6 0.00 0.00 0.00 69 1024.3
20260906061923 64 132 0.9 3.5 0.00 0.00 0.00 69 1024.3
20260906060909 64 336 2.6 7.0 0.00 0.00 0.00 67 1024.1
20260906054811 65 186 2.6 7.0 0.00 0.00 0.00 65 1023.7
20260906053743 65 188 2.6 7.0 0.00 0.00 0.00 66 1023.7
20260906052745 65 204 2.6 7.0 0.00 0.00 0.00 66 1023.7
20260906051727 65 155 3.5 7.0 0.00 0.00 0.00 66 1023.7
20260906050750 65 196 2.6 5.2 0.00 0.00 0.00 66 1023.8
20260906044627 66 186 2.6 6.1 0.00 0.00 0.00 66 1024.1
20260906043615 66 169 2.6 5.2 0.00 0.00 0.00 66 1024.2
20260906042543 66 205 1.7 5.2 0.00 0.00 0.00 65 1024.3
20260906041512 66 189 1.7 4.3 0.00 0.00 0.00 64 1024.3
20260906040446 67 206 1.7 4.3 0.00 0.00 0.00 63 1024.4
20260906035448 67 157 1.7 4.3 0.00 0.00 0.00 63 1024.5
20260906034420 67 200 2.6 6.1 0.00 0.00 0.00 62 1024.5
20260906033404 68 202 2.6 8.7 0.00 0.00 0.00 61 1024.4
20260906032403 69 150 3.5 8.7 0.00 0.00 0.00 60 1024.1
20260906031337 69 153 3.5 8.7 0.00 0.00 0.00 61 1023.9
20260906025252 69 141 4.3 9.6 0.00 0.00 0.00 62 1023.9
20260906024314 69 142 5.2 12.2 0.00 0.00 0.00 61 1023.9
20260906023256 70 144 7.8 13.0 0.00 0.00 0.00 60 1023.9
20260906022251 71 138 6.1 13.0 0.00 0.00 0.00 51 1023.5
20260906021240 72 69 2.6 4.3 0.00 0.00 0.00 36 1023.0
20260906020215 72 99 1.7 4.3 0.00 0.00 0.00 36 1023.0
20260906015224 72 104 1.7 4.3 0.00 0.00 0.00 35 1022.7
20260906014201 73 76 1.7 3.5 0.00 0.00 0.00 33 1022.7
20260906013210 75 71 0.9 3.5 0.00 0.00 0.00 32 1022.7
20260906012146 78 46 0.0 0.9 0.00 0.00 0.00 29 1022.8
20260906011203 80 0 0.9 2.6 0.00 0.00 0.00 29 1023.0
20260906005035 78 296 0.9 3.5 0.00 0.00 0.00 30 1023.2
20260906004028 77 307 1.7 3.5 0.00 0.00 0.00 32 1023.2
20260906002956 76 318 3.5 7.0 0.00 0.00 0.00 33 1023.2
20260906002016 77 311 2.6 7.0 0.00 0.00 0.00 31 1023.2
20260906001034 78 309 3.5 6.1 0.00 0.00 0.00 31 1023.2
20260906000018 80 315 1.7 5.2 0.00 0.00 0.00 29 1023.2
20260905235034 81 306 2.6 5.2 0.00 0.00 0.00 29 1023.1
20260905234023 82 25 0.9 3.5 0.00 0.00 0.00 27 1023.0
20260905231929 81 309 0.9 4.3 0.00 0.00 0.00 28 1022.8
20260905225745 80 273 2.6 5.2 0.00 0.00 0.00 27 1023.0
20260905224727 80 5 3.5 6.1 0.00 0.00 0.00 30 1023.0
20260905223657 77 355 1.7 6.1 0.00 0.00 0.00 33 1023.3
20260905222701 77 225 1.7 5.2 0.00 0.00 0.00 31 1023.3
20260905221657 77 206 1.7 4.3 0.00 0.00 0.00 32 1023.3
20260905220658 77 114 1.7 7.8 0.00 0.00 0.00 31 1023.4
20260905215644 77 146 4.3 12.2 0.00 0.00 0.00 31 1023.5